This is the latest recevied weather packets stored in our database for station/object JH0KSP-13. If no packets are shown the sender has not sent any weather packets the latest 10 day(s).
| Time | Temp. | Humidity | Pressure | Rain* | Wind** | Luminosity | Snow |
|---|---|---|---|---|---|---|---|
| 1778216816 | 22.22° C | 54% | 1005.8 hPa | 0 mm | - | - | - |
| 1778215809 | 22.22° C | 56% | 1006.3 hPa | 0 mm | - | - | - |
| 1778215616 | 22.22° C | 57% | 1006.4 hPa | 0 mm | - | - | - |
| 1778215208 | 22.22° C | 58% | 1006.5 hPa | 0 mm | - | - | - |
| 1778214609 | 22.22° C | 59% | 1006.5 hPa | 0 mm | - | - | - |
| 1778214415 | 22.22° C | 59% | 1006.5 hPa | 0 mm | - | - | - |
| 1778214009 | 21.11° C | 61% | 1006.7 hPa | 0 mm | - | - | - |
| 1778213410 | 21.11° C | 64% | 1006.8 hPa | 0 mm | - | - | - |
| 1778213216 | 21.11° C | 66% | 1006.8 hPa | 0 mm | - | - | - |
| 1778212809 | 21.11° C | 66% | 1006.8 hPa | 0 mm | - | - | - |
| 1778212209 | 21.11° C | 65% | 1007 hPa | 0 mm | - | - | - |
| 1778212016 | 21.11° C | 65% | 1007.1 hPa | 0 mm | - | - | - |
| 1778211608 | 21.11° C | 67% | 1006.9 hPa | 0 mm | - | - | - |
| 1778211008 | 21.11° C | 71% | 1006.9 hPa | 0 mm | - | - | - |
| 1778210817 | 21.11° C | 72% | 1006.8 hPa | 0 mm | - | - | - |
| 1778210409 | 21.11° C | 71% | 1007 hPa | 0 mm | - | - | - |
| 1778209615 | 21.11° C | 67% | 1007.2 hPa | 0 mm | - | - | - |
| 1778209209 | 21.11° C | 69% | 1007.1 hPa | 0 mm | - | - | - |
| 1778208417 | 22.22° C | 59% | 1007.5 hPa | 0 mm | - | - | - |
| 1778207409 | 22.22° C | 55% | 1007.4 hPa | 0 mm | - | - | - |
| 1778207216 | 22.22° C | 55% | 1007.4 hPa | 0 mm | - | - | - |
| 1778206809 | 22.22° C | 55% | 1007.4 hPa | 0 mm | - | - | - |
| 1778206208 | 22.78° C | 54% | 1007.6 hPa | 0 mm | - | - | - |
| 1778206017 | 22.22° C | 57% | 1007.8 hPa | 0 mm | - | - | - |
| 1778205008 | 22.22° C | 60% | 1008.2 hPa | 0 mm | - | - | - |
* Rain latest hour (hover to see other rain measurements)
** Current wind speed in m/s (hover to see current wind gust speed)